Cosmos 2082 Rocket - Orbit

View from above orbital plane
View from above orbital plane
View from above satellite
View from above satellite

Ground track
Ground track

The orbit data is extracted from the following two-line orbital elements,

1 20625U 90046B   13142.18866260  .00000331  00000-0  19704-3 0  4448
2 20625 071.0009 029.7631 0015184 213.1913 319.1798 14.14474214187557
Epoch (UTC): 22 May 2013 04:31:40
Eccentricity: 0.0015184
inclination: 71.0009°
perigee height: 833 km
apogee height: 855 km
right ascension of ascending node: 29.7631°
argument of perigee: 213.1913°
revolutions per day: 14.14474214
mean anomaly at epoch: 319.1798°
orbit number at epoch: 18755

The dashed part of the orbit path shows where the satellite is in the earth's shadow,  

Developed and maintained by Chris Peat, Heavens-Above GmbH. Please read the updated FAQ before sending e-mail. Imprint. DLR